Miscellaneous Hydrologic Data Report
Issued by NWS (Baltimore/Washington) Sterling, VA
1 of 52 available versions  First Miscellaneous Hydrologic Data Report Previous Miscellaneous Hydrologic Data Report  Print this page Close this Window


000
ASUS41 KLWX 021410
RWRLWX

REGIONAL WEATHER ROUNDUP
NATIONAL WEATHER SERVICE BALTIMORE MD/WASHINGTON DC
1000 AM EDT THU OCT 02 2014

Note: "FAIR" indicates few or no clouds below 12,000 feet
with no significant weather and/or obstructions to visibility.
 TC=TEMPERATURE CELSIUS

 * =Non NWS site. Station does not report precipitation (e.g. rain,
    snow, etc.), thunder, or fog.

DCZ001-MDZ009-015-VAZ040>042-051-053>054-021500-
WASHINGTON METRO

CITY           SKY/WX    TMP DP  RH WIND       PRES   REMARKS
WASHINGTON NAT CLOUDY    67  59  75 CALM      30.15S
DULLES         CLOUDY    63  60  90 CALM      30.15S FOG
ANDREWS AFB    MOSUNNY   66  59  79 S2        30.14S
QUANTICO       PTSUNNY   64  60  87 N6        30.16R
COLLEGE PARK*  PTSUNNY   66  63  88 CALM      30.14R
LEESBURG*      CLOUDY    63  63 100 CALM      30.16S FOG
MANASSAS*      CLOUDY    64  64 100 CALM      30.15  FOG
GAITHERSBURG*  MOSUNNY   64  61  88 CALM      30.19R

$$

MDZ006>007-011-014-021500-
BALTIMORE METRO

CITY           SKY/WX    TMP DP  RH WIND       PRES   REMARKS
BWI AIRPORT    PTSUNNY   67  59  75 CALM      30.14S
MD SCIENCE CTR   N/A     67  58  72 MISG      30.14F
MARTIN STATE   PTSUNNY   70  63  78 N8        30.15
ANNAPOLIS      PTSUNNY   67  59  75 CALM      30.14S
FORT MEADE*    MOSUNNY   63  61  94 CALM      30.16S

$$

MDZ012-015-019>023-021500-
MARYLAND EASTERN SHORE

CITY           SKY/WX    TMP DP  RH WIND       PRES   REMARKS
OCEAN CITY     PTSUNNY   66  59  78 N8        30.12R
SALISBURY      SUNNY     69  59  70 N7        30.12R
BAY BRIDGE AP*   N/A     68  57  68 CALM      30.14S
CAMBRIDGE*     MOSUNNY   68  59  73 NE7       30.13S
EASTON*        PTSUNNY   66  66 100 CALM      30.17R

$$

MDZ017>025-021500-
SOUTHERN MARYLAND

CITY           SKY/WX    TMP DP  RH WIND       PRES   REMARKS
PATUXENT RIVER PTSUNNY   68  58  70 VRB3      30.13S
ST INIGOES     CLOUDY    67  58  72 N3        30.12F
LEONARDTOWN*   CLOUDY    64  59  82 CALM      30.15S

$$

MDZ003>005-021500-
NORTH CENTRAL MARYLAND

CITY           SKY/WX    TMP DP  RH WIND       PRES   REMARKS
FREDERICK*     PTSUNNY   64  63  94 CALM      30.18S FOG
HAGERSTOWN APT FOG       61  59  93 CALM      30.15S VSB 1
WESTMINSTER*   CLOUDY    64  59  82 CALM      30.15S

$$

MDZ501>502-021500-
WESTERN MARYLAND

CITY           SKY/WX    TMP DP  RH WIND       PRES   REMARKS
OAKLAND*       SUNNY     57 N/A N/A CALM      30.17R
CUMBERLAND*    CLOUDY    61  59  94 S3        30.18R

$$

VAZ025>031-021500-
SHENANDOAH VALLEY

CITY           SKY/WX    TMP DP  RH WIND       PRES   REMARKS
WINCHESTER*    CLOUDY    61  61 100 CALM      30.15S FOG
STAUNTON*      CLOUDY    63  61  95 CALM      30.17R FOG

$$

WVZ021-048>050-054>055-021500-
EASTERN WEST VIRGINIA PANHANDLE

CITY           SKY/WX    TMP DP  RH WIND       PRES   REMARKS
MARTINSBURG    CLOUDY    62  57  83 CALM      30.15S HAZE
PETERSBURG*    CLOUDY   N/A N/A N/A CALM      30.15S

$$

VAZ036>039-050-021500-
CENTRAL FOOTHILLS

CITY           SKY/WX    TMP DP  RH WIND       PRES   REMARKS
CHARLOTTESVILL CLOUDY    66  63  90 CALM      30.14R FOG
ORANGE*        CLOUDY    64  63  94 CALM      30.15R

$$

VAZ055>057-021500-
NORTH AND CENTRAL PIEDMONT

CITY           SKY/WX    TMP DP  RH WIND       PRES   REMARKS
FREDERICKSBRG* CLOUDY    66  66 100 CALM      30.14R FOG
STAFFORD*      CLOUDY    64  64 100 CALM      30.18S FOG

$$

NCZ024-NYZ072-PAZ021-071-VAZ022-071-021500-
OTHER REGIONAL OBSERVATIONS

CITY           SKY/WX    TMP DP  RH WIND       PRES   REMARKS
NEW YORK CITY  CLOUDY    62  54  74 VRB6      30.17R
PHILADELPHIA   PTSUNNY   64  55  72 NE8       30.16R
PITTSBURGH     FOG       54  54 100 CALM      30.13R VSB 1/16
ROANOKE        CLOUDY    66  60  81 CALM      30.17S
RICHMOND       CLOUDY    67  64  90 CALM      30.13R
RALEIGH        MOSUNNY   72  65  78 CALM      30.13R

$$

ANZ530>537-021500-
MARINE OBSERVATIONS

STATION/POSITION TIME  TEMP    WIND        PRES
                       AIR SEA DIR/SP/G
                 (UTC) (F)     (DEG/KT/KT) (MB)
THOMAS PT LIGHT  1400   65 72  350/  3/  4 1021.4F
BALT KEY BRIDGE  1400   65      40/  1/  2 1020.5S
COVE POINT       1400   65      60/  3/  5 1020.2F
LEWISETTA        1400   67 72   60/  6/  7 1020.0F
SOLOMONS ISLAND  1400      72                N/A
PINEY POINT      1400           90/  7/  8   N/A

$$

Close this window


The National Weather Service prepares its forecasts and other services in collaboration with agencies like the US Geological Survey, US Bureau of Reclamation, US Army Corps of Engineers, Natural Resource Conservation Service, National Park Service, ALERT Users Group, Bureau of Indian Affairs, and many state and local emergency managers across the country. For details, please click here.

National Weather Service
(Baltimore/Washington) Sterling Weather Forecast Office
43858 Weather Service Rd.
Sterling, VA 20166
(703) 996-2200
Page last modified: 2-Oct-2014 2:10 PM
Disclaimer
Credits
Glossary
Privacy Policy
About Us
Career Opportunities